User: anonymous   Login
Location: Pian di Sc�
(43.6333°N, 11.5500°E)
Time: 11:10:51
(UTC+00:00)
Language:

IRS-1D - Orbit

View from above orbital plane
View from above orbital plane
View from above satellite
View from above satellite

Ground track
Ground track

The orbit data is extracted from the following two-line orbital elements,

1 24971U 97057A   20300.11011443  .00000023  00000-0  23550-4 0  9995
2 24971  98.5769 243.6882 0052980 183.6359 176.4451 14.34005410207257
Epoch (UTC): 26 October 2020 02:38:33
Eccentricity: 0.0052980
inclination: 98.5769°
perigee height: 740 km
apogee height: 816 km
right ascension of ascending node: 243.6882°
argument of perigee: 183.6359°
revolutions per day: 14.34005410
mean anomaly at epoch: 176.4451°
orbit number at epoch: 20725

The dashed part of the orbit path shows where the satellite is in the earth's shadow,  

DLR